User: anonymous   Login
Location: Theydon Bois
(51.6750°N, 0.1050°E)
Time: 13:33:06
(UTC+00:00)
Language:

MTI - Orbit

View from above orbital plane
View from above orbital plane
View from above satellite
View from above satellite

Ground track
Ground track

The orbit data is extracted from the following two-line orbital elements,

1 26102U 00014A   17344.76106635 +.00004334 +00000-0 +82161-4 0  9995
2 26102 097.5807 164.3414 0007724 004.1423 121.5782 15.48905372981835
Epoch (UTC): 10 December 2017 18:15:56
Eccentricity: 0.0007724
inclination: 97.5807°
perigee height: 414 km
apogee height: 425 km
right ascension of ascending node: 164.3414°
argument of perigee: 4.1423°
revolutions per day: 15.48905372
mean anomaly at epoch: 121.5782°
orbit number at epoch: 98183

The dashed part of the orbit path shows where the satellite is in the earth's shadow,  

DLR